Year,Month,Day,Hour,Minute,Value (Times are PST for temperature in C)
2010,12,12,00,00,5.50
2010,12,12,00,01,5.50
2010,12,12,00,02,5.50
2010,12,12,00,03,5.50
2010,12,12,00,04,5.50
2010,12,12,00,05,5.50
2010,12,12,00,06,5.50
2010,12,12,00,07,5.50
2010,12,12,00,08,5.50
2010,12,12,00,09,5.50
2010,12,12,00,10,5.50
2010,12,12,00,11,5.50
2010,12,12,00,12,5.50
2010,12,12,00,18,5.50
2010,12,12,00,19,5.50
2010,12,12,00,20,5.50
2010,12,12,00,21,5.50
2010,12,12,00,22,5.50
2010,12,12,00,23,5.50
2010,12,12,00,24,5.50
2010,12,12,00,25,5.50
2010,12,12,00,26,5.50
2010,12,12,00,27,5.50
2010,12,12,00,28,5.50
2010,12,12,00,29,5.50
2010,12,12,00,30,5.50
2010,12,12,00,31,5.50
2010,12,12,00,32,5.50
2010,12,12,00,33,5.50
2010,12,12,00,34,5.50
2010,12,12,00,35,5.50
2010,12,12,00,36,5.50
2010,12,12,00,37,5.60
2010,12,12,00,38,5.60
2010,12,12,00,39,5.60
2010,12,12,00,40,5.60
2010,12,12,00,41,5.60
2010,12,12,00,42,5.60
2010,12,12,00,43,5.60
2010,12,12,00,44,5.60
2010,12,12,00,45,5.60
2010,12,12,00,46,5.60
2010,12,12,00,47,5.60
2010,12,12,00,48,5.60
2010,12,12,00,49,5.60
2010,12,12,00,50,5.60
2010,12,12,00,51,5.60
2010,12,12,00,52,5.60
2010,12,12,00,53,5.60
2010,12,12,00,54,5.60
2010,12,12,00,55,5.60
2010,12,12,00,56,5.60
2010,12,12,00,57,5.60
2010,12,12,00,58,5.60
2010,12,12,00,59,5.60
2010,12,12,01,00,5.60
2010,12,12,01,01,5.60
2010,12,12,01,02,5.60
2010,12,12,01,03,5.60
2010,12,12,01,04,5.60
2010,12,12,01,05,5.60
2010,12,12,01,06,5.60
2010,12,12,01,07,5.60
2010,12,12,01,08,5.60
2010,12,12,01,09,5.60
2010,12,12,01,10,5.60
2010,12,12,01,11,5.60
2010,12,12,01,12,5.60
2010,12,12,01,13,5.60
2010,12,12,01,14,5.60
2010,12,12,01,15,5.60
2010,12,12,01,16,5.60
2010,12,12,01,17,5.60
2010,12,12,01,18,5.60
2010,12,12,01,19,5.60
2010,12,12,01,20,5.60
2010,12,12,01,21,5.60
2010,12,12,01,22,5.60
2010,12,12,01,23,5.60
2010,12,12,01,24,5.60
2010,12,12,01,25,5.60
2010,12,12,01,26,5.60
2010,12,12,01,27,5.60
2010,12,12,01,28,5.60
2010,12,12,01,29,5.60
2010,12,12,01,30,5.60
2010,12,12,01,31,5.60
2010,12,12,01,32,5.60
2010,12,12,01,33,5.70
2010,12,12,01,34,5.70
2010,12,12,01,35,5.70
2010,12,12,01,36,5.70
2010,12,12,01,37,5.70
2010,12,12,01,38,5.70
2010,12,12,01,39,5.70
2010,12,12,01,40,5.70
2010,12,12,01,41,5.70
2010,12,12,01,42,5.70
2010,12,12,01,43,5.70
2010,12,12,01,44,5.70
2010,12,12,01,45,5.70
2010,12,12,01,46,5.70
2010,12,12,01,47,5.70
2010,12,12,01,48,5.70
2010,12,12,01,49,5.70
2010,12,12,01,50,5.70
2010,12,12,01,51,5.80
2010,12,12,01,52,5.80
2010,12,12,01,53,5.80
2010,12,12,01,54,5.80
2010,12,12,01,55,5.80
2010,12,12,01,56,5.80
2010,12,12,01,57,5.80
2010,12,12,01,58,5.80
2010,12,12,01,59,5.80
2010,12,12,02,00,5.80
2010,12,12,02,01,5.80
2010,12,12,02,02,5.80
2010,12,12,02,03,5.80
2010,12,12,02,04,5.80
2010,12,12,02,05,5.80
2010,12,12,02,06,5.80
2010,12,12,02,07,5.80
2010,12,12,02,08,5.80
2010,12,12,02,09,5.80
2010,12,12,02,10,5.80
2010,12,12,02,11,5.80
2010,12,12,02,12,5.80
2010,12,12,02,13,5.80
2010,12,12,02,14,5.80
2010,12,12,02,15,5.80
2010,12,12,02,16,5.80
2010,12,12,02,17,5.80
2010,12,12,02,18,5.80
2010,12,12,02,19,5.80
2010,12,12,02,20,5.80
2010,12,12,02,21,5.80
2010,12,12,02,22,5.90
2010,12,12,02,23,5.80
2010,12,12,02,24,5.90
2010,12,12,02,25,5.90
2010,12,12,02,26,5.90
2010,12,12,02,27,5.90
2010,12,12,02,28,5.90
2010,12,12,02,29,5.90
2010,12,12,02,30,5.90
2010,12,12,02,31,5.90
2010,12,12,02,32,5.90
2010,12,12,02,33,5.90
2010,12,12,02,34,5.90
2010,12,12,02,35,5.90
2010,12,12,02,36,5.90
2010,12,12,02,37,5.90
2010,12,12,02,38,5.90
2010,12,12,02,39,5.90
2010,12,12,02,40,5.90
2010,12,12,02,41,5.90
2010,12,12,02,42,5.90
2010,12,12,02,43,6.00
2010,12,12,02,44,6.00
2010,12,12,02,45,6.00
2010,12,12,02,46,6.00
2010,12,12,02,47,6.00
2010,12,12,02,48,6.00
2010,12,12,02,49,6.00
2010,12,12,02,50,6.00
2010,12,12,02,51,6.00
2010,12,12,02,52,6.00
2010,12,12,02,53,6.00
2010,12,12,02,54,6.00
2010,12,12,02,55,6.00
2010,12,12,02,56,6.00
2010,12,12,02,57,6.00
2010,12,12,02,58,6.00
2010,12,12,02,59,6.00
2010,12,12,03,00,6.00
2010,12,12,03,01,6.00
2010,12,12,03,02,6.00
2010,12,12,03,03,6.00
2010,12,12,03,04,6.00
2010,12,12,03,05,6.00
2010,12,12,03,06,6.10
2010,12,12,03,07,6.10
2010,12,12,03,08,6.10
2010,12,12,03,09,6.10
2010,12,12,03,10,6.10
2010,12,12,03,11,6.10
2010,12,12,03,12,6.10
2010,12,12,03,13,6.10
2010,12,12,03,14,6.20
2010,12,12,03,15,6.20
2010,12,12,03,16,6.20
2010,12,12,03,17,6.20
2010,12,12,03,18,6.20
2010,12,12,03,19,6.20
2010,12,12,03,20,6.20
2010,12,12,03,21,6.20
2010,12,12,03,22,6.10
2010,12,12,03,23,6.10
2010,12,12,03,24,6.10
2010,12,12,03,25,6.10
2010,12,12,03,26,6.10
2010,12,12,03,27,6.10
2010,12,12,03,28,6.10
2010,12,12,03,29,6.10
2010,12,12,03,30,6.10
2010,12,12,03,31,6.10
2010,12,12,03,32,6.10
2010,12,12,03,33,6.10
2010,12,12,03,34,6.10
2010,12,12,03,35,6.10
2010,12,12,03,36,6.10
2010,12,12,03,37,6.10
2010,12,12,03,38,6.10
2010,12,12,03,39,6.20
2010,12,12,03,40,6.20
2010,12,12,03,41,6.20
2010,12,12,03,42,6.20
2010,12,12,03,43,6.20
2010,12,12,03,44,6.20
2010,12,12,03,45,6.20
2010,12,12,03,46,6.20
2010,12,12,03,47,6.20
2010,12,12,03,48,6.20
2010,12,12,03,49,6.20
2010,12,12,03,50,6.20
2010,12,12,03,51,6.20
2010,12,12,03,52,6.20
2010,12,12,03,53,6.20
2010,12,12,03,54,6.20
2010,12,12,03,55,6.20
2010,12,12,03,56,6.20
2010,12,12,03,57,6.20
2010,12,12,03,58,6.20
2010,12,12,03,59,6.20
2010,12,12,04,00,6.20
2010,12,12,04,01,6.20
2010,12,12,04,02,6.20
2010,12,12,04,03,6.20
2010,12,12,04,04,6.20
2010,12,12,04,05,6.20
2010,12,12,04,06,6.20
2010,12,12,04,07,6.20
2010,12,12,04,08,6.20
2010,12,12,04,09,6.20
2010,12,12,04,10,6.20
2010,12,12,04,11,6.20
2010,12,12,04,12,6.20
2010,12,12,04,13,6.20
2010,12,12,04,14,6.20
2010,12,12,04,15,6.20
2010,12,12,04,16,6.20
2010,12,12,04,17,6.20
2010,12,12,04,18,6.20
2010,12,12,04,19,6.20
2010,12,12,04,20,6.20
2010,12,12,04,21,6.20
2010,12,12,04,22,6.20
2010,12,12,04,23,6.20
2010,12,12,04,24,6.20
2010,12,12,04,25,6.20
2010,12,12,04,26,6.30
2010,12,12,04,27,6.30
2010,12,12,04,28,6.30
2010,12,12,04,29,6.30
2010,12,12,04,30,6.30
2010,12,12,04,31,6.30
2010,12,12,04,32,6.30
2010,12,12,04,33,6.30
2010,12,12,04,34,6.30
2010,12,12,04,35,6.30
2010,12,12,04,36,6.30
2010,12,12,04,37,6.30
2010,12,12,04,38,6.30
2010,12,12,04,39,6.30
2010,12,12,04,40,6.30
2010,12,12,04,41,6.30
2010,12,12,04,42,6.30
2010,12,12,04,43,6.30
2010,12,12,04,44,6.30
2010,12,12,04,45,6.30
2010,12,12,04,46,6.30
2010,12,12,04,47,6.30
2010,12,12,04,48,6.30
2010,12,12,04,49,6.30
2010,12,12,04,50,6.30
2010,12,12,04,51,6.30
2010,12,12,04,52,6.30
2010,12,12,04,53,6.30
2010,12,12,04,54,6.30
2010,12,12,04,55,6.30
2010,12,12,04,56,6.30
2010,12,12,04,57,6.30
2010,12,12,04,58,6.30
2010,12,12,04,59,6.30
2010,12,12,05,00,6.30
2010,12,12,05,01,6.30
2010,12,12,05,02,6.30
2010,12,12,05,03,6.30
2010,12,12,05,04,6.30
2010,12,12,05,05,6.30
2010,12,12,05,06,6.30
2010,12,12,05,07,6.30
2010,12,12,05,08,6.30
2010,12,12,05,09,6.30
2010,12,12,05,10,6.30
2010,12,12,05,11,6.40
2010,12,12,05,12,6.40
2010,12,12,05,13,6.40
2010,12,12,05,14,6.40
2010,12,12,05,15,6.40
2010,12,12,05,16,6.40
2010,12,12,05,17,6.40
2010,12,12,05,18,6.40
2010,12,12,05,19,6.40
2010,12,12,05,20,6.40
2010,12,12,05,21,6.40
2010,12,12,05,22,6.50
2010,12,12,05,23,6.50
2010,12,12,05,24,6.50
2010,12,12,05,25,6.50
2010,12,12,05,26,6.50
2010,12,12,05,27,6.50
2010,12,12,05,28,6.50
2010,12,12,05,29,6.50
2010,12,12,05,30,6.50
2010,12,12,05,31,6.60
2010,12,12,05,32,6.50
2010,12,12,05,33,6.50
2010,12,12,05,34,6.50
2010,12,12,05,35,6.60
2010,12,12,05,36,6.60
2010,12,12,05,37,6.60
2010,12,12,05,38,6.60
2010,12,12,05,39,6.60
2010,12,12,05,40,6.60
2010,12,12,05,41,6.60
2010,12,12,05,42,6.70
2010,12,12,05,43,6.70
2010,12,12,05,44,6.70
2010,12,12,05,45,6.70
2010,12,12,05,46,6.70
2010,12,12,05,47,6.70
2010,12,12,05,48,6.70
2010,12,12,05,49,6.70
2010,12,12,05,50,6.70
2010,12,12,05,51,6.70
2010,12,12,05,52,6.70
2010,12,12,05,53,6.70
2010,12,12,05,54,6.70
2010,12,12,05,55,6.70
2010,12,12,05,56,6.80
2010,12,12,05,57,6.80
2010,12,12,05,58,6.80
2010,12,12,05,59,6.80
2010,12,12,06,00,6.80
2010,12,12,06,01,6.80
2010,12,12,06,02,6.80
2010,12,12,06,03,6.80
2010,12,12,06,04,6.80
2010,12,12,06,05,6.80
2010,12,12,06,06,6.80
2010,12,12,06,07,6.80
2010,12,12,06,08,6.80
2010,12,12,06,09,6.80
2010,12,12,06,10,6.80
2010,12,12,06,11,6.80
2010,12,12,06,12,6.80
2010,12,12,06,13,6.90
2010,12,12,06,14,6.90
2010,12,12,06,15,6.90
2010,12,12,06,16,6.90
2010,12,12,06,17,6.90
2010,12,12,06,18,6.90
2010,12,12,06,19,6.90
2010,12,12,06,20,6.90
2010,12,12,06,21,6.90
2010,12,12,06,22,6.90
2010,12,12,06,23,7.00
2010,12,12,06,24,6.90
2010,12,12,06,25,6.90
2010,12,12,06,26,6.90
2010,12,12,06,27,6.90
2010,12,12,06,28,6.90
2010,12,12,06,29,7.00
2010,12,12,06,30,7.00
2010,12,12,06,31,7.00
2010,12,12,06,32,7.00
2010,12,12,06,33,7.00
2010,12,12,06,34,7.00
2010,12,12,06,35,7.00
2010,12,12,06,36,7.10
2010,12,12,06,37,7.10
2010,12,12,06,38,7.10
2010,12,12,06,39,7.10
2010,12,12,06,40,7.10
2010,12,12,06,41,7.10
2010,12,12,06,42,7.20
2010,12,12,06,43,7.20
2010,12,12,06,44,7.20
2010,12,12,06,45,7.20
2010,12,12,06,46,7.20
2010,12,12,06,47,7.20
2010,12,12,06,48,7.20
2010,12,12,06,49,7.20
2010,12,12,06,50,7.20
2010,12,12,06,51,7.20
2010,12,12,06,52,7.20
2010,12,12,06,53,7.20
2010,12,12,06,54,7.20
2010,12,12,06,55,7.20
2010,12,12,06,56,7.20
2010,12,12,06,57,7.20
2010,12,12,06,58,7.20
2010,12,12,06,59,7.20
2010,12,12,07,00,7.20
2010,12,12,07,01,7.20
2010,12,12,07,02,7.20
2010,12,12,07,03,7.20
2010,12,12,07,04,7.20
2010,12,12,07,05,7.20
2010,12,12,07,06,7.20
2010,12,12,07,07,7.20
2010,12,12,07,08,7.20
2010,12,12,07,09,7.20
2010,12,12,07,10,7.20
2010,12,12,07,11,7.20
2010,12,12,07,12,7.20
2010,12,12,07,13,7.20
2010,12,12,07,14,7.30
2010,12,12,07,15,7.30
2010,12,12,07,16,7.30
2010,12,12,07,17,7.30
2010,12,12,07,18,7.30
2010,12,12,07,19,7.30
2010,12,12,07,20,7.30
2010,12,12,07,21,7.30
2010,12,12,07,22,7.30
2010,12,12,07,23,7.30
2010,12,12,07,24,7.30
2010,12,12,07,25,7.30
2010,12,12,07,26,7.30
2010,12,12,07,27,7.30
2010,12,12,07,28,7.40
2010,12,12,07,29,7.40
2010,12,12,07,30,7.40
2010,12,12,07,31,7.40
2010,12,12,07,32,7.50
2010,12,12,07,33,7.50
2010,12,12,07,34,7.50
2010,12,12,07,35,7.50
2010,12,12,07,36,7.50
2010,12,12,07,37,7.50
2010,12,12,07,38,7.50
2010,12,12,07,39,7.50
2010,12,12,07,40,7.50
2010,12,12,07,41,7.60
2010,12,12,07,42,7.60
2010,12,12,07,43,7.60
2010,12,12,07,44,7.60
2010,12,12,07,45,7.60
2010,12,12,07,46,7.60
2010,12,12,07,47,7.60
2010,12,12,07,48,7.60
2010,12,12,07,49,7.60
2010,12,12,07,50,7.60
2010,12,12,07,51,7.60
2010,12,12,07,52,7.60
2010,12,12,07,53,7.60
2010,12,12,07,54,7.60
2010,12,12,07,55,7.60
2010,12,12,07,56,7.60
2010,12,12,07,57,7.60
2010,12,12,07,58,7.60
2010,12,12,07,59,7.60
2010,12,12,08,00,7.60
2010,12,12,08,01,7.60
2010,12,12,08,02,7.60
2010,12,12,08,03,7.60
2010,12,12,08,04,7.60
2010,12,12,08,05,7.60
2010,12,12,08,06,7.60
2010,12,12,08,07,7.60
2010,12,12,08,08,7.60
2010,12,12,08,09,7.60
2010,12,12,08,10,7.60
2010,12,12,08,11,7.60
2010,12,12,08,12,7.60
2010,12,12,08,13,7.70
2010,12,12,08,14,7.70
2010,12,12,08,15,7.70
2010,12,12,08,16,7.70
2010,12,12,08,17,7.70
2010,12,12,08,18,7.60
2010,12,12,08,19,7.60
2010,12,12,08,20,7.60
2010,12,12,08,21,7.70
2010,12,12,08,22,7.70
2010,12,12,08,23,7.70
2010,12,12,08,24,7.70
2010,12,12,08,25,7.70
2010,12,12,08,26,7.70
2010,12,12,08,27,7.70
2010,12,12,08,28,7.70
2010,12,12,08,29,7.70
2010,12,12,08,30,7.70
2010,12,12,08,31,7.80
2010,12,12,08,32,7.90
2010,12,12,08,33,8.20
2010,12,12,08,34,8.60
2010,12,12,14,48,11.30
2010,12,12,15,52,10.70
2010,12,12,15,59,10.70
2010,12,12,16,21,10.70
2010,12,12,16,25,10.60
2010,12,12,16,26,10.60
2010,12,12,16,27,10.60
2010,12,12,16,28,10.60
2010,12,12,16,29,10.60
2010,12,12,16,30,10.50
2010,12,12,16,31,10.50
2010,12,12,16,32,10.50
2010,12,12,16,33,10.50
2010,12,12,16,34,10.50
2010,12,12,16,35,10.50
2010,12,12,16,36,10.50
2010,12,12,16,37,10.50
2010,12,12,16,38,10.50
2010,12,12,16,39,10.50
2010,12,12,16,40,10.50
2010,12,12,16,41,10.50
2010,12,12,16,42,10.40
2010,12,12,16,43,10.40
2010,12,12,16,44,10.40
2010,12,12,16,45,10.40
2010,12,12,16,46,10.40
2010,12,12,16,47,10.40
2010,12,12,16,48,10.40
2010,12,12,16,49,10.40
2010,12,12,16,50,10.40
2010,12,12,16,51,10.40
2010,12,12,16,52,10.40
2010,12,12,16,53,10.40
2010,12,12,16,54,10.40
2010,12,12,16,55,10.40
2010,12,12,16,56,10.40
2010,12,12,16,57,10.40
2010,12,12,16,58,10.40
2010,12,12,16,59,10.40
2010,12,12,17,00,10.40
2010,12,12,17,01,10.40
2010,12,12,17,02,10.40
2010,12,12,17,03,10.40
2010,12,12,17,04,10.30
2010,12,12,17,05,10.30
2010,12,12,17,06,10.40
2010,12,12,17,07,10.40
2010,12,12,17,08,10.40
2010,12,12,17,09,10.40
2010,12,12,17,10,10.40
2010,12,12,17,11,10.40
2010,12,12,17,12,10.40
2010,12,12,17,13,10.40
2010,12,12,17,14,10.40
2010,12,12,17,15,10.40
2010,12,12,17,16,10.40
2010,12,12,17,17,10.40
2010,12,12,17,18,10.40
2010,12,12,17,19,10.40
2010,12,12,17,20,10.40
2010,12,12,17,21,10.40
2010,12,12,17,22,10.40
2010,12,12,17,23,10.40
2010,12,12,17,24,10.40
2010,12,12,17,25,10.40
2010,12,12,17,26,10.40
2010,12,12,17,27,10.40
2010,12,12,17,28,10.40
2010,12,12,17,29,10.30
2010,12,12,17,30,10.30
2010,12,12,17,31,10.30
2010,12,12,17,32,10.30
2010,12,12,17,33,10.30
2010,12,12,17,34,10.30
2010,12,12,17,35,10.30
2010,12,12,17,36,10.30
2010,12,12,17,37,10.30
2010,12,12,17,38,10.30
2010,12,12,17,39,10.30
2010,12,12,17,40,10.30
2010,12,12,17,41,10.30
2010,12,12,17,42,10.30
2010,12,12,17,43,10.30
2010,12,12,17,44,10.30
2010,12,12,17,45,10.30
2010,12,12,17,46,10.30
2010,12,12,17,47,10.20
2010,12,12,17,48,10.20
2010,12,12,17,49,10.20
2010,12,12,17,50,10.20
2010,12,12,17,51,10.20
2010,12,12,17,52,10.20
2010,12,12,17,53,10.20
2010,12,12,17,54,10.20
2010,12,12,17,55,10.20
2010,12,12,17,56,10.20
2010,12,12,17,57,10.20
2010,12,12,17,58,10.20
2010,12,12,17,59,10.20
2010,12,12,18,00,10.20
2010,12,12,18,01,10.20
2010,12,12,18,02,10.20
2010,12,12,18,03,10.20
2010,12,12,18,04,10.20
2010,12,12,18,05,10.20
2010,12,12,18,06,10.20
2010,12,12,18,07,10.20
2010,12,12,18,08,10.20
2010,12,12,18,09,10.20
2010,12,12,18,10,10.20
2010,12,12,18,11,10.20
2010,12,12,18,12,10.20
2010,12,12,18,13,10.20
2010,12,12,18,14,10.20
2010,12,12,18,15,10.20
2010,12,12,18,16,10.20
2010,12,12,18,17,10.20
2010,12,12,18,18,10.20
2010,12,12,18,19,10.20
2010,12,12,18,20,10.20
2010,12,12,18,21,10.20
2010,12,12,18,22,10.20
2010,12,12,18,23,10.10
2010,12,12,18,24,10.10
2010,12,12,18,25,10.10
2010,12,12,18,26,10.10
2010,12,12,18,27,10.10
2010,12,12,18,28,10.10
2010,12,12,18,29,10.10
2010,12,12,18,30,10.10
2010,12,12,18,31,10.10
2010,12,12,18,32,10.10
2010,12,12,18,33,10.10
2010,12,12,18,34,10.00
2010,12,12,18,35,10.00
2010,12,12,18,36,10.00
2010,12,12,18,37,10.00
2010,12,12,18,38,10.00
2010,12,12,18,39,9.90
2010,12,12,18,40,9.90
2010,12,12,18,41,9.90
2010,12,12,18,42,9.80
2010,12,12,18,43,9.80
2010,12,12,18,44,9.80
2010,12,12,18,45,9.70
2010,12,12,18,46,9.70
2010,12,12,18,47,9.70
2010,12,12,18,48,9.70
2010,12,12,18,49,9.70
2010,12,12,18,50,9.60
2010,12,12,18,51,9.60
2010,12,12,18,52,9.60
2010,12,12,18,53,9.60
2010,12,12,18,54,9.60
2010,12,12,18,55,9.60
2010,12,12,18,56,9.60
2010,12,12,18,57,9.50
2010,12,12,18,58,9.50
2010,12,12,18,59,9.50
2010,12,12,19,00,9.50
2010,12,12,19,01,9.50
2010,12,12,19,02,9.50
2010,12,12,19,03,9.40
2010,12,12,19,04,9.40
2010,12,12,19,05,9.40
2010,12,12,19,06,9.40
2010,12,12,19,07,9.40
2010,12,12,19,08,9.50
2010,12,12,19,09,9.40
2010,12,12,19,10,9.40
2010,12,12,19,11,9.40
2010,12,12,19,12,9.40
2010,12,12,19,13,9.40
2010,12,12,19,14,9.40
2010,12,12,19,15,9.40
2010,12,12,19,16,9.40
2010,12,12,19,17,9.40
2010,12,12,19,18,9.40
2010,12,12,19,19,9.30
2010,12,12,19,20,9.30
2010,12,12,19,21,9.30
2010,12,12,19,22,9.30
2010,12,12,19,23,9.30
2010,12,12,19,24,9.40
2010,12,12,19,25,9.40
2010,12,12,19,26,9.40
2010,12,12,19,27,9.40
2010,12,12,19,28,9.30
2010,12,12,19,29,9.30
2010,12,12,19,30,9.30
2010,12,12,19,31,9.30
2010,12,12,19,32,9.30
2010,12,12,19,33,9.30
2010,12,12,19,34,9.30
2010,12,12,19,35,9.30
2010,12,12,19,36,9.30
2010,12,12,19,37,9.30
2010,12,12,19,38,9.30
2010,12,12,19,39,9.20
2010,12,12,19,40,9.20
2010,12,12,19,41,9.20
2010,12,12,19,42,9.20
2010,12,12,19,43,9.20
2010,12,12,19,44,9.20
2010,12,12,19,45,9.20
2010,12,12,19,46,9.20
2010,12,12,19,47,9.20
2010,12,12,19,48,9.20
2010,12,12,19,49,9.20
2010,12,12,19,50,9.20
2010,12,12,19,51,9.20
2010,12,12,19,52,9.20
2010,12,12,19,53,9.30
2010,12,12,19,54,9.30
2010,12,12,19,55,9.30
2010,12,12,19,56,9.30
2010,12,12,19,57,9.30
2010,12,12,19,58,9.30
2010,12,12,19,59,9.30
2010,12,12,20,00,9.40
2010,12,12,20,01,9.40
2010,12,12,20,02,9.40
2010,12,12,20,03,9.40
2010,12,12,20,04,9.40
2010,12,12,20,05,9.40
2010,12,12,20,06,9.30
2010,12,12,20,07,9.30
2010,12,12,20,08,9.30
2010,12,12,20,09,9.30
2010,12,12,20,10,9.40
2010,12,12,20,11,9.40
2010,12,12,20,12,9.40
2010,12,12,20,13,9.40
2010,12,12,20,14,9.40
2010,12,12,20,15,9.40
2010,12,12,20,16,9.40
2010,12,12,20,17,9.40
2010,12,12,20,18,9.30
2010,12,12,20,19,9.30
2010,12,12,20,20,9.30
2010,12,12,20,21,9.30
2010,12,12,20,22,9.30
2010,12,12,20,23,9.30
2010,12,12,20,24,9.30
2010,12,12,20,25,9.30
2010,12,12,20,26,9.40
2010,12,12,20,27,9.40
2010,12,12,20,28,9.40
2010,12,12,20,29,9.40
2010,12,12,20,30,9.40
2010,12,12,20,31,9.40
2010,12,12,20,32,9.40
2010,12,12,20,33,9.40
2010,12,12,20,39,9.30
2010,12,12,20,40,9.20
2010,12,12,20,41,9.20
2010,12,12,20,42,9.20
2010,12,12,20,43,9.20
2010,12,12,20,44,9.20
2010,12,12,20,45,9.20
2010,12,12,20,46,9.10
2010,12,12,20,47,9.10
2010,12,12,20,48,9.10
2010,12,12,20,49,9.10
2010,12,12,20,51,9.10
2010,12,12,20,53,9.10
2010,12,12,20,54,9.10
